Location: Newark
(45.2500°N, 7.5833°E)
Time: 11:48:32
(UTC+00:00)

N. Korean satellite - Pass Details

Date: 23 December 2019
Orbit: 454 x 508 km, 97.2° (Epoch: 17 January)

Event Time Altitude Azimuth Distance (km) Brightness Sun altitude
Rises 16:19:55 0° 162° (SSE) 2,575 10.4 -5.2°
Reaches altitude 10° 16:22:00 10° 161° (SSE) 1,689 9.4 -5.6°
Maximum altitude 16:25:37 75° 76° (ENE) 513 6.5 -6.1°
Drops below altitude 10° 16:29:13 10° 351° (N) 1,674 9.1 -6.7°
Sets 16:31:16 0° 350° (N) 2,549 10.1 -7.0°
